Weather History for Debrecen, Hungary

Change the Weather History Date:

Wednesday, October 17, 2012

  Actual Average Record
Temperature  
Mean Temperature 53 °F -  
Max Temperature 61 °F 54 °F - ()
Min Temperature 46 °F 37 °F - ()
Degree Days  
Heating Degree Days 12    
Growing Degree Days 3 (Base 50)    
Moisture  
Dew Point 44 °F    
Average Humidity 72    
Maximum Humidity 93    
Minimum Humidity 43    
Precipitation  
Precipitation 0.00 in 0.05 in - ()
Sea Level Pressure  
Sea Level Pressure 30.16 in    
Wind  
Wind Speed 11 mph ()    
Max Wind Speed 18 mph    
Max Gust Speed -    
Visibility 7.4 miles    
Events Rain    
T = Trace of Precipitation, MM = Missing Value Source: Averaged Metar Reports

Daily Weather History Graph

Daily Weather History Graph

Search for Another Location

Airport:

Trip Planner

Search our weather history database for the weather conditions in past years. The results will help you decide how hot, cold, wet, or windy it might be!

Date:

Astronomy

Oct. 17, 2012 Rise Set
Actual Time 6:55 AM CEST 5:41 PM CEST
Civil Twilight 6:24 AM CEST 6:12 PM CEST
Nautical Twilight 5:48 AM CEST 6:48 PM CEST
Astronomical Twilight 5:12 AM CEST 7:23 PM CEST
Moon 9:19 AM CEST 6:48 PM CEST
Length of Visible Light 11h 48m
Length of Day
10h 46m
Waxing Crescent, 5% of the Moon is Illuminated
Oct 17
Waxing Crescent
Oct 22
First Quarter
Oct 29
Full
Nov 7
Last Quarter
Nov 13
New

Hourly Weather History & Observations

Time (CEST) Temp. Windchill Dew Point Humidity Pressure Visibility Wind Dir Wind Speed Gust Speed Precip Events Conditions
2:00 AM 49 °F - 45 °F 82% 30.02 in - WSW 11.2 mph - -  
4:14 AM 46.4 °F 39.8 °F 42.8 °F 87% 30.04 in - SSW 16.1 mph - N/A   Unknown
4:45 AM 46.4 °F 40.4 °F 42.8 °F 87% 30.04 in 6.2 mi SSW 13.8 mph - N/A Rain Light Rain
5:45 AM 46.4 °F 40.4 °F 44.6 °F 93% 30.06 in - SSW 13.8 mph - N/A   Clear
6:15 AM 46.4 °F 41.1 °F 44.6 °F 93% 30.06 in 6.2 mi SSW 11.5 mph - N/A   Mostly Cloudy
6:45 AM 48.2 °F - 44.6 °F 87% 30.09 in 6.2 mi SW 13.8 mph - N/A   Mostly Cloudy
7:00 AM - - - N/A% - 6.2 mi SSW 10.4 mph - N/A   Scattered Clouds
7:15 AM 48.2 °F - 42.8 °F 82% 30.09 in 6.2 mi SW 15.0 mph - N/A   Mostly Cloudy
7:45 AM 48.2 °F - 44.6 °F 87% 30.09 in 6.2 mi SW 17.3 mph - N/A   Mostly Cloudy
8:00 AM 48 °F - 44 °F 81% 30.11 in 16 mi SW 17.9 mph - -   Partly Cloudy
8:15 AM 48.2 °F - 44.6 °F 87% 30.12 in 6.2 mi SW 15.0 mph - N/A   Mostly Cloudy
8:45 AM 48.2 °F - 44.6 °F 87% 30.12 in 6.2 mi SW 15.0 mph - N/A   Mostly Cloudy
9:15 AM 50.0 °F - 44.6 °F 82% 30.15 in 6.2 mi SW 15.0 mph - N/A   Mostly Cloudy
9:45 AM 51.8 °F - 44.6 °F 76% 30.15 in 6.2 mi WSW 13.8 mph - N/A   Mostly Cloudy
10:00 AM - - - N/A% - 6.2 mi WSW 16.1 mph - N/A   Scattered Clouds
10:15 AM 51.8 °F - 44.6 °F 76% 30.18 in 6.2 mi WSW 11.5 mph - N/A   Scattered Clouds
10:45 AM 53.6 °F - 44.6 °F 72% 30.18 in 6.2 mi WSW 11.5 mph - N/A   Scattered Clouds
11:15 AM 55.4 °F - 44.6 °F 67% 30.18 in 6.2 mi WSW 10.4 mph - N/A   Scattered Clouds
11:45 AM 55.4 °F - 44.6 °F 67% 30.21 in 6.2 mi WSW 10.4 mph - N/A   Scattered Clouds
12:15 PM 57.2 °F - 44.6 °F 63% 30.18 in 6.2 mi SW 9.2 mph - N/A   Partly Cloudy
12:45 PM 57.2 °F - 44.6 °F 63% 30.18 in 6.2 mi SW 8.1 mph - N/A   Partly Cloudy
1:00 PM - - - N/A% - 6.2 mi WSW 9.2 mph - N/A   Scattered Clouds
1:15 PM 59.0 °F - 44.6 °F 59% 30.21 in 6.2 mi SW 11.5 mph - N/A   Scattered Clouds
1:45 PM 60.8 °F - 42.8 °F 52% 30.21 in 6.2 mi SW 10.4 mph - N/A   Scattered Clouds
2:00 PM 60 °F - 43 °F 43% 30.20 in 19 mi SW 11.2 mph - -   Partly Cloudy
2:15 PM 60.8 °F - 42.8 °F 52% 30.21 in 6.2 mi SW 11.5 mph - N/A   Scattered Clouds
2:45 PM 60.8 °F - 42.8 °F 52% 30.21 in 6.2 mi SW 11.5 mph - N/A   Scattered Clouds
3:15 PM 60.8 °F - 42.8 °F 52% 30.21 in 6.2 mi SW 11.5 mph - N/A   Mostly Cloudy
3:45 PM 59.0 °F - 42.8 °F 55% 30.21 in - SW 10.4 mph - N/A   Clear
4:00 PM - - - N/A% - 3.1 mi WSW 9.2 mph - N/A   Clear
4:15 PM 59.0 °F - 42.8 °F 55% 30.21 in - SW 9.2 mph - N/A   Clear
4:45 PM 60.8 °F - 44.6 °F 55% 30.21 in - SW 5.8 mph - N/A   Clear
5:15 PM 60.8 °F - 42.8 °F 52% 30.21 in - SSW 5.8 mph - N/A   Clear
6:15 PM 53.6 °F - 46.4 °F 77% 30.24 in - South 5.8 mph - N/A   Clear
6:45 PM 51.8 °F - 46.4 °F 82% 30.24 in - South 6.9 mph - N/A   Clear
7:15 PM 51.8 °F - 46.4 °F 82% 30.24 in - South 4.6 mph - N/A   Clear
7:45 PM 50.0 °F - 44.6 °F 82% 30.24 in - South 4.6 mph - N/A   Clear
8:00 PM 50 °F - 45 °F 77% 30.24 in 19 mi South 4.5 mph - -   Partly Cloudy
9:00 PM - - - N/A% - - North - - N/A   Unknown